Weather History for Penn Yan, NY

Change the Weather History Date:

Wednesday, January 15, 2014

  Actual Average (KITH) Record (KITH)
Temperature  
Mean Temperature 33 °F -  
Max Temperature 39 °F 30 °F 66 °F (1932)
Min Temperature 27 °F 15 °F -25 °F (1957)
Degree Days  
Heating Degree Days 32    
Moisture  
Dew Point 26 °F    
Average Humidity 76    
Maximum Humidity 92    
Minimum Humidity 61    
Precipitation  
Precipitation 0.00 in - - ()
Sea Level Pressure  
Sea Level Pressure 29.88 in    
Wind  
Wind Speed 5 mph (West)    
Max Wind Speed 10 mph    
Max Gust Speed -    
Visibility 9 miles    
Events      
Averages and records for this station are not official NWS values.
T = Trace of Precipitation, MM = Missing Value Source: NWS Daily Summary

Daily Weather History Graph

Daily Weather History Graph

Search for Another Location

Airport:

Trip Planner

Search our weather history database for the weather conditions in past years. The results will help you decide how hot, cold, wet, or windy it might be!

Date:

Astronomy

Jan. 15, 2014 Rise Set
Actual Time 7:35 AM EST 5:00 PM EST
Civil Twilight 7:04 AM EST 5:31 PM EST
Nautical Twilight 6:29 AM EST 6:06 PM EST
Astronomical Twilight 5:55 AM EST 6:39 PM EST
Moon 4:57 PM EST (1/15) 6:49 AM EST (1/15)
Length of Visible Light 10h 26m
Length of Day
9h 24m
Full, 100% of the Moon is Illuminated
Jan 15
Full
Jan 15
Full
Jan 24
Last Quarter
Jan 30
New
Feb 6
First Quarter

Hourly Weather History & Observations

Time (EST) Temp. Windchill Dew Point Humidity Pressure Visibility Wind Dir Wind Speed Gust Speed Precip Events Conditions
12:53 AM 28.0 °F 24.2 °F 26.1 °F 92% 29.83 in 4.0 mi WSW 3.5 mph - N/A   Clear
1:53 AM 27.0 °F - 25.0 °F 92% 29.82 in 4.0 mi Calm Calm - N/A   Clear
2:53 AM 28.9 °F 23.9 °F 27.0 °F 92% 29.82 in 5.0 mi SW 4.6 mph - N/A   Clear
3:53 AM 30.0 °F - 28.0 °F 92% 29.80 in 6.0 mi Calm Calm - N/A   Mostly Cloudy
4:53 AM 32.0 °F 26.4 °F 28.9 °F 88% 29.81 in 7.0 mi SW 5.8 mph - N/A   Overcast
5:53 AM 33.1 °F 26.1 °F 28.9 °F 85% 29.81 in 9.0 mi SW 8.1 mph - N/A   Overcast
6:53 AM 35.1 °F 27.9 °F 30.0 °F 82% 29.83 in 9.0 mi SSW 9.2 mph - 0.00 in   Overcast
7:53 AM 35.1 °F 27.9 °F 30.9 °F 85% 29.84 in 9.0 mi SSW 9.2 mph - N/A   Mostly Cloudy
8:53 AM 36.0 °F 29.6 °F 30.9 °F 82% 29.86 in 10.0 mi SW 8.1 mph - N/A   Mostly Cloudy
9:53 AM 37.9 °F 31.5 °F 32.0 °F 79% 29.87 in 10.0 mi SSW 9.2 mph - N/A   Unknown
10:53 AM 39.9 °F 35.1 °F 33.1 °F 77% 29.88 in 10.0 mi SSW 6.9 mph - N/A   Mostly Cloudy
11:49 AM 37.4 °F 32.8 °F 30.2 °F 75% 29.84 in 9.0 mi NNE 5.8 mph - N/A   Overcast
11:53 AM 36.0 °F 32.1 °F 30.0 °F 79% 29.87 in 7.0 mi North 4.6 mph - N/A   Overcast
12:37 PM 36.0 °F 30.3 °F 30.0 °F 79% 29.84 in 7.0 mi NE 6.9 mph - N/A   Overcast
12:53 PM 36.0 °F 30.3 °F 28.9 °F 76% 29.87 in 7.0 mi NNE 6.9 mph - N/A   Overcast
1:53 PM 39.9 °F 37.8 °F 30.0 °F 68% 29.87 in 10.0 mi South 3.5 mph - N/A   Overcast
2:53 PM 39.0 °F 36.8 °F 27.0 °F 62% 29.88 in 10.0 mi ESE 3.5 mph - N/A   Overcast
3:53 PM 35.1 °F 30.1 °F 28.0 °F 76% 29.90 in 9.0 mi East 5.8 mph - N/A   Overcast
4:53 PM 33.1 °F 27.7 °F 24.1 °F 70% 29.92 in 10.0 mi Variable 5.8 mph - N/A   Overcast
5:45 PM 32.0 °F 27.5 °F 23.0 °F 69% 29.90 in 10.0 mi NNW 4.6 mph - N/A   Overcast
5:53 PM 32.0 °F 28.7 °F 23.0 °F 69% 29.94 in 10.0 mi NNW 3.5 mph - N/A   Overcast
6:02 PM 32.0 °F 28.7 °F 23.0 °F 69% 29.91 in 10.0 mi North 3.5 mph - N/A   Overcast
6:53 PM 30.9 °F 25.2 °F 21.9 °F 69% 29.96 in 10.0 mi NNW 5.8 mph - N/A   Overcast
7:53 PM 30.0 °F 24.1 °F 21.0 °F 69% 29.97 in 10.0 mi NW 5.8 mph - N/A   Overcast
8:53 PM 30.0 °F 22.4 °F 19.9 °F 66% 29.99 in 10.0 mi NW 8.1 mph - N/A   Overcast
9:53 PM 28.9 °F 25.2 °F 19.9 °F 69% 29.99 in 10.0 mi West 3.5 mph - N/A   Overcast
10:53 PM 28.9 °F 19.8 °F 18.0 °F 64% 29.98 in 10.0 mi WSW 10.4 mph - N/A   Overcast
11:53 PM 28.9 °F 22.8 °F 17.1 °F 61% 29.97 in 10.0 mi West 5.8 mph - N/A   Overcast